Flag for Germany Weather past 2 weeks in Bornheim (Rheinland), North Rhine-Westphalia, Germany

Now
44 °F

Overcast.


Feels Like: 42 °F
Forecast: 34 / 48 °F
Wind: 5 mph from Northwest

Location: Bonn-Hangelar

Current Time: Mar 5, 2015 at 5:33:31 PM

Latest Report: Mar 5, 2015 at 5:00 PM


Visibility: 22 mi

Pressure: 30.64 "Hg

Humidity: 68%

Dew point: 35 °F

Location of Bornheim (Rheinland)Location

Historic Weather in Bornheim (Rheinland) — Graph

°F

Bornheim (Rheinland) temperature yesterday

Maximum temperature yesterday: 42 °F (at 2:00 PM)
Minimum temperature yesterday: 34 °F (at 6:00 AM)
Average temperature yesterday: 38 °F

Past Weeks' High & Low Weather Summary

 TemperatureHumidityPressure
High49 °F (Mar 1, 1:00 PM)100% (Feb 21, 8:00 PM)30.69 "Hg (Feb 21, 8:00 PM)
Low31 °F (Feb 19, 9:00 PM)54% (Feb 28, 5:00 PM)29.38 "Hg (Feb 21, 3:00 AM)
Average39 °F85%29.95 "Hg
* Reported Feb 18 4:00 PM — Mar 5 4:00 PM, Bornheim (Rheinland), Weather by CustomWeather, © 2015

Note: Actual official high and low records may vary slightly from our data, if they occured in-between our weather recording intervals... More about our weather records

Advertising

Bornheim (Rheinland) weather history for previous 24 hours

 ConditionsComfort  
Time TempWeatherWind HumidityBarometerVisibility
4:00 PM
Thu, Mar 5
45 °FOvercast.7 mph66%30.64 "Hg22 mi
3:00 PM45 °FPartly sunny.6 mph73%30.64 "Hg22 mi
2:00 PM44 °FOvercast.5 mph75%30.66 "Hg22 mi
1:00 PM42 °FOvercast.3 mph78%30.68 "Hg19 mi
12:00 PM41 °FOvercast.5 mph86%30.69 "Hg16 mi
11:00 AM40 °FOvercast.3 mph93%30.68 "Hg11 mi
10:00 AM38 °FFog.3 mph99%30.69 "Hg3 mi
9:00 AM36 °FFog.3 mph100%30.68 "Hg1 mi
8:00 AM36 °FFog.3 mph100%30.66 "Hg1 mi
7:00 AM36 °FFog.2 mph99%30.65 "Hg1 mi
6:00 AM36 °FFog.3 mph98%30.64 "Hg3 mi
5:00 AM36 °FFog.2 mph97%30.63 "Hg4 mi
4:00 AM36 °FLow clouds.3 mph97%30.62 "Hg7 mi
3:00 AM37 °FLow clouds.3 mph96%30.60 "Hg9 mi
2:00 AM37 °FOvercast.5 mph94%30.59 "Hg12 mi
1:00 AM38 °FOvercast.5 mph93%30.57 "Hg15 mi
12:00 AM38 °FPassing clouds.7 mph89%30.54 "Hg19 mi
11:00 PM
Wed, Mar 4
38 °FPassing clouds.7 mph86%30.51 "Hg19 mi
10:00 PM38 °FOvercast.7 mph88%30.49 "Hg17 mi
9:00 PM39 °FSprinkles. Overcast.9 mph84%30.46 "Hg22 mi
8:00 PM40 °FOvercast.8 mph79%30.44 "Hg25 mi
7:00 PM39 °FOvercast.8 mph80%30.42 "Hg25 mi
6:00 PM39 °FPartly sunny.7 mph87%30.39 "Hg25 mi
5:00 PM40 °FOvercast.8 mph79%30.35 "Hg25 mi
Weather by CustomWeather, © 2015

See weather overviewHow to use our weather pages